Starlink 5030

operational
NORAD ID: 55418 Int'l Des: 2023-014 Owner: SPXS Country: US Constellation: starlink
LEOCIRCULAR

Über Starlink 5030

Beschreibung wird geladen...

Live-Position

3D-Globus wird geladen...

Nächste Überflüge

Höhenverlauf

Altitude vs Time

uPlot chart will show altitude changes over time

Zweizeiliger Elementsatz

1 55418U 23014AD 25353.25533558 -.00000484 00000-0 -32779-4 0 9997
2 55418 70.0000 287.2680 0002789 270.5763 89.5077 14.98327671159516
Epoch: 19. Dez. 2025 • Age: 26 hours

Aktueller Status

Höhe 585.1 km
Geschwindigkeit 7.57 km/s
Subsatellitenpunkt 67.86°N, 170.59°W
Startdatum 31. Jan. 2023
Alter 2.8 years
Typ internet

Technische Details

Klassifizierung Payload
Masse 305.00 kg
Trockenmasse 290.00 kg
Gesamtmasse 305.00 kg
Länge 0.20 m
Durchmesser 2.80 m
Spannweite 9.00 m
Form Box + pan
Hersteller SPXS
Bus-Typ Starlink
Phasenstatus In Orbit
Besitzer/Staat SPXS/US

Große Konstellationen

Loading constellations...